Location: Grieser Field
(39.7333°N, 81.7975°W)
Time: 09:09:01
(UTC-04:00)

Meteor 2-1 Rocket - Visible Passes

Search period start: 30 July 2014 00:00
Search period end: 09 August 2014 00:00
Orbit: 830 x 908 km, 81.3° (Epoch: 28 July)

Date Brightness Start Highest point End Pass type
(mag) Time Alt. Az. Time Alt. Az. Time Alt. Az.
30 Jul 4.2 04:38:23 21° S 04:42:10 89° E 04:47:49 10° N visible
31 Jul 4.1 04:32:19 26° S 04:35:36 89° W 04:41:15 10° N visible
01 Aug 6.8 02:45:58 10° E 02:46:41 10° E 02:47:24 10° ENE visible
01 Aug 4.1 04:26:12 31° S 04:29:02 87° W 04:34:41 10° N visible
02 Aug 6.7 02:38:57 10° E 02:40:06 11° E 02:41:14 10° ENE visible
02 Aug 4.1 04:20:05 36° SSW 04:22:27 86° W 04:28:08 10° N visible
03 Aug 6.7 02:32:04 10° E 02:33:30 11° E 02:34:57 10° ENE visible
03 Aug 4.1 04:13:55 42° SSW 04:15:53 84° W 04:21:34 10° N visible
03 Aug 6.3 05:59:20 10° WNW 06:00:08 10° WNW 06:00:56 10° NW visible
04 Aug 6.6 02:25:20 10° E 02:26:55 11° E 02:28:36 10° ENE visible
04 Aug 4.1 04:07:44 49° SSW 04:09:19 82° W 04:15:00 10° N visible
04 Aug 6.3 05:53:27 10° WNW 05:53:35 10° WNW 05:53:43 10° WNW visible
05 Aug 6.6 02:19:08 11° E 02:20:19 12° E 02:22:13 10° ENE visible
05 Aug 4.1 04:01:32 56° SSW 04:02:45 80° W 04:08:27 10° N visible
06 Aug 6.6 02:12:54 12° E 02:13:44 12° E 02:15:49 10° ENE visible
06 Aug 4.1 03:55:19 64° SW 03:56:10 78° W 04:01:53 10° N visible
07 Aug 6.6 02:06:40 12° E 02:07:09 13° E 02:09:24 10° ENE visible
07 Aug 4.0 03:49:05 70° SW 03:49:36 76° W 03:55:19 10° N visible
08 Aug 6.5 02:00:24 13° E 02:00:33 13° E 02:02:59 10° ENE visible
08 Aug 4.1 03:42:49 73° WSW 03:43:02 75° W 03:48:45 10° N visible
